Location: ???? ????
(31.2831°N, 45.5190°E)
Time: 04:33:19
(UTC+00:00)

CZ-4B R/B - Pass Details

Date: 24 February 2021
Orbit: 629 x 905 km, 99.4° (Epoch: 14 April)

Event Time Altitude Azimuth Distance (km) Brightness Sun altitude
Rises 15:55:14 0° 161° (SSE) 2,902 7.8 -14.2°
Reaches altitude 10° 15:57:24 10° 160° (SSE) 2,000 7.0 -14.6°
Maximum altitude 16:01:42 76° 75° (ENE) 663 4.5 -15.5°
Drops below altitude 10° 16:06:11 10° 350° (N) 2,079 7.4 -16.5°
Sets 16:08:27 0° 349° (N) 3,026 8.2 -17.0°
